地図

経路データ

SID SEASON NUMBER BASIN SUBBASIN NAME ISO_TIME NATURE LAT LON WMO_WIND WMO_PRES WMO_AGENCY TRACK_TYPE DIST2LAND LANDFALL IFLAG USA_AGENCY USA_ATCF_ID USA_LAT USA_LON USA_RECORD USA_STATUS USA_WIND USA_PRES USA_SSHS USA_R34_NE USA_R34_SE USA_R34_SW USA_R34_NW USA_R50_NE USA_R50_SE USA_R50_SW USA_R50_NW USA_R64_NE USA_R64_SE USA_R64_SW USA_R64_NW USA_POCI USA_ROCI USA_RMW USA_EYE TOKYO_LAT TOKYO_LON TOKYO_GRADE TOKYO_WIND TOKYO_PRES TOKYO_R50_DIR TOKYO_R50_LONG TOKYO_R50_SHORT TOKYO_R30_DIR TOKYO_R30_LONG TOKYO_R30_SHORT TOKYO_LAND CMA_LAT CMA_LON CMA_CAT CMA_WIND CMA_PRES HKO_LAT HKO_LON HKO_CAT HKO_WIND HKO_PRES NEWDELHI_LAT NEWDELHI_LON NEWDELHI_GRADE NEWDELHI_WIND NEWDELHI_PRES NEWDELHI_CI NEWDELHI_DP NEWDELHI_POCI REUNION_LAT REUNION_LON REUNION_TYPE REUNION_WIND REUNION_PRES REUNION_TNUM REUNION_CI REUNION_RMW REUNION_R34_NE REUNION_R34_SE REUNION_R34_SW REUNION_R34_NW REUNION_R50_NE REUNION_R50_SE REUNION_R50_SW REUNION_R50_NW REUNION_R64_NE REUNION_R64_SE REUNION_R64_SW REUNION_R64_NW BOM_LAT BOM_LON BOM_TYPE BOM_WIND BOM_PRES BOM_TNUM BOM_CI BOM_RMW BOM_R34_NE BOM_R34_SE BOM_R34_SW BOM_R34_NW BOM_R50_NE BOM_R50_SE BOM_R50_SW BOM_R50_NW BOM_R64_NE BOM_R64_SE BOM_R64_SW BOM_R64_NW BOM_ROCI BOM_POCI BOM_EYE BOM_POS_METHOD BOM_PRES_METHOD NADI_LAT NADI_LON NADI_CAT NADI_WIND NADI_PRES WELLINGTON_LAT WELLINGTON_LON WELLINGTON_WIND WELLINGTON_PRES DS824_LAT DS824_LON DS824_STAGE DS824_WIND DS824_PRES TD9636_LAT TD9636_LON TD9636_STAGE TD9636_WIND TD9636_PRES TD9635_LAT TD9635_LON TD9635_WIND TD9635_PRES TD9635_ROCI NEUMANN_LAT NEUMANN_LON NEUMANN_CLASS NEUMANN_WIND NEUMANN_PRES MLC_LAT MLC_LON MLC_CLASS MLC_WIND MLC_PRES USA_GUST BOM_GUST BOM_GUST_PER REUNION_GUST REUNION_GUST_PER USA_SEAHGT USA_SEARAD_NE USA_SEARAD_SE USA_SEARAD_SW USA_SEARAD_NW STORM_SPEED STORM_DIR
1970267N09345 1970 122 NA NA NOT_NAMED 1970-09-23 12:00:00 TS 9.00000 -15.0000 20 atcf spur-merge 145 145 O_____________ atcf AL151970 9.00000 -15.0000 TD 20 -1 15 270
1970267N09345 1970 122 NA NA NOT_NAMED 1970-09-23 15:00:00 TS 9.00030 -15.7500 spur-merge 196 196 P_____________ AL151970 9.00030 -15.7500 TD 20 -1 15 270
1970267N09345 1970 122 NA NA NOT_NAMED 1970-09-23 18:00:00 TS 9.00000 -16.5000 20 atcf spur-merge 257 257 O_____________ atcf AL151970 9.00000 -16.5000 TD 20 -1 15 270
1970267N09345 1970 122 NA NA NOT_NAMED 1970-09-23 21:00:00 TS 8.99985 -17.2500 spur-merge 313 313 P_____________ AL151970 8.99985 -17.2500 TD 22 -1 15 270
1970267N09345 1970 122 NA NA NOT_NAMED 1970-09-24 00:00:00 TS 9.00000 -18.0000 25 atcf spur-merge 373 373 O_____________ atcf AL151970 9.00000 -18.0000 TD 25 -1 15 270
1970267N09345 1970 122 NA NA NOT_NAMED 1970-09-24 03:00:00 TS 8.99985 -18.7500 spur-merge 422 422 P_____________ AL151970 8.99985 -18.7500 TD 25 -1 15 270
1970267N09345 1970 122 NA NA NOT_NAMED 1970-09-24 06:00:00 TS 9.00000 -19.5000 25 atcf spur-merge 481 481 O_____________ atcf AL151970 9.00000 -19.5000 TD 25 -1 15 269
1970267N09345 1970 122 NA NA NOT_NAMED 1970-09-24 09:00:00 TS 8.98470 -20.2276 spur-merge 532 532 P_____________ AL151970 8.98470 -20.2276 TD 25 -1 15 270
1970267N09345 1970 122 NA NA NOT_NAMED 1970-09-24 12:00:00 TS 9.00000 -21.0000 25 atcf spur-merge 596 596 O_____________ atcf AL151970 9.00000 -21.0000 TD 25 -1 16 273
1970267N09345 1970 122 NA NA NOT_NAMED 1970-09-24 15:00:00 TS 9.07749 -21.8850 spur-merge 668 668 P_____________ AL151970 9.07749 -21.8850 TD 25 -1 18 276
1970267N09345 1970 122 NA NA NOT_NAMED 1970-09-24 18:00:00 TS 9.20000 -22.8000 25 atcf spur-merge 747 747 O_____________ atcf AL151970 9.20000 -22.8000 TD 25 -1 18 279
1970267N09345 1970 122 NA NA NOT_NAMED 1970-09-24 21:00:00 TS 9.34224 -23.6575 spur-merge 830 825 P_____________ AL151970 9.34224 -23.6575 TD 27 -1 17 280
1970267N09345 1970 122 NA NA NOT_NAMED 1970-09-25 00:00:00 TS 9.50000 -24.5000 30 atcf spur-merge 901 901 O_____________ atcf AL151970 9.50000 -24.5000 TD 30 -1 17 281
1970267N09345 1970 122 NA NA NOT_NAMED 1970-09-25 03:00:00 TS 9.65724 -25.3425 spur-merge 976 976 P_____________ AL151970 9.65724 -25.3425 TD 30 -1 17 280
1970267N09345 1970 122 NA NA NOT_NAMED 1970-09-25 06:00:00 TS 9.80000 -26.2000 30 atcf spur-merge 1066 1066 O_____________ atcf AL151970 9.80000 -26.2000 TD 30 -1 18 278
1970267N09345 1970 122 NA NA NOT_NAMED 1970-09-25 09:00:00 TS 9.90749 -27.1151 spur-merge 1158 1158 P_____________ AL151970 9.90749 -27.1151 TD 30 -1 18 276
1970267N09345 1970 122 NA NA NOT_NAMED 1970-09-25 12:00:00 TS 10.0000 -28.0000 30 atcf spur-merge 1251 1251 O_____________ atcf AL151970 10.0000 -28.0000 TD 30 -1 16 276
1970267N09345 1970 122 NA NA NOT_NAMED 1970-09-25 15:00:00 TS 10.0922 -28.7726 spur-merge 1331 1331 P_____________ AL151970 10.0922 -28.7726 TD 30 -1 15 278
1970267N09345 1970 122 NA NA NOT_NAMED 1970-09-25 18:00:00 TS 10.2000 -29.5000 30 atcf spur-merge 1397 1397 O_____________ atcf AL151970 10.2000 -29.5000 TD 30 -1 15 280
1970267N09345 1970 122 NA NA NOT_NAMED 1970-09-25 21:00:00 TS 10.3423 -30.2500 spur-merge 1474 1470 P_____________ AL151970 10.3423 -30.2500 TD 30 -1 15 281
1970267N09345 1970 122 NA NA NOT_NAMED 1970-09-26 00:00:00 TS 10.5000 -31.0000 30 atcf spur-merge 1538 1538 O_____________ atcf AL151970 10.5000 -31.0000 TD 30 -1 15 282
1970267N09345 1970 122 NA NA NOT_NAMED 1970-09-26 03:00:00 TS 10.6573 -31.7500 spur-merge 1614 1614 P_____________ AL151970 10.6573 -31.7500 TD 30 -1 15 282
1970267N09345 1970 122 NA NA NOT_NAMED 1970-09-26 06:00:00 TS 10.8000 -32.5000 30 atcf spur-merge 1684 1684 O_____________ atcf AL151970 10.8000 -32.5000 TD 30 -1 15 280
1970267N09345 1970 122 NA NA NOT_NAMED 1970-09-26 09:00:00 TS 10.9221 -33.2275 spur-merge 1710 1684 P_____________ AL151970 10.9221 -33.2275 TD 30 -1 15 278
1970267N09345 1970 122 NA NA NOT_NAMED 1970-09-26 12:00:00 TS 11.0000 -34.0000 30 atcf spur-merge 1684 1652 O_____________ atcf AL151970 11.0000 -34.0000 TD 30 -1 16 273
1970267N09345 1970 122 NA NA NOT_NAMED 1970-09-26 15:00:00 TS 11.0150 -34.8851 spur-merge 1649 1619 P_____________ AL151970 11.0150 -34.8851 TD 30 -1 18 270
1970267N09345 1970 122 NA NA NOT_NAMED 1970-09-26 18:00:00 TS 11.0000 -35.8000 30 atcf spur-merge 1619 1597 O_____________ atcf AL151970 11.0000 -35.8000 TD 30 -1 17 269
1970267N09345 1970 122 NA NA NOT_NAMED 1970-09-26 21:00:00 TS 10.9997 -36.6575 spur-merge 1594 1578 P_____________ AL151970 10.9997 -36.6575 TD 30 -1 17 270
1970267N09345 1970 122 NA NA NOT_NAMED 1970-09-27 00:00:00 TS 11.0000 -37.5000 30 atcf spur-merge 1578 1566 O_____________ atcf AL151970 11.0000 -37.5000 TD 30 -1 17 270
1970267N09345 1970 122 NA NA NOT_NAMED 1970-09-27 03:00:00 TS 10.9997 -38.3425 spur-merge 1566 1530 P_____________ AL151970 10.9997 -38.3425 TD 30 -1 17 270
1970267N09345 1970 122 NA NA NOT_NAMED 1970-09-27 06:00:00 TS 11.0000 -39.2000 30 atcf spur-merge 1530 1454 O_____________ atcf AL151970 11.0000 -39.2000 TD 30 -1 17 270
1970267N09345 1970 122 NA NA NOT_NAMED 1970-09-27 09:00:00 TS 10.9923 -40.0926 spur-merge 1444 1370 P_____________ AL151970 10.9923 -40.0926 TD 30 -1 18 270
1970267N09345 1970 122 NA NA NOT_NAMED 1970-09-27 12:00:00 TS 11.0000 -41.0000 30 atcf spur-merge 1361 1288 O_____________ atcf AL151970 11.0000 -41.0000 TD 30 -1 18 272
1970267N09345 1970 122 NA NA NOT_NAMED 1970-09-27 15:00:00 TS 11.0422 -41.8925 spur-merge 1279 1216 P_____________ AL151970 11.0422 -41.8925 TD 30 -1 18 273
1970267N09345 1970 122 NA NA NOT_NAMED 1970-09-27 18:00:00 TS 11.1000 -42.8000 30 atcf spur-merge 1207 1132 O_____________ atcf AL151970 11.1000 -42.8000 TD 30 -1 18 273
1970267N09345 1970 122 NA NA NOT_NAMED 1970-09-27 21:00:00 TS 11.1498 -43.7425 spur-merge 1132 1069 P_____________ AL151970 11.1498 -43.7425 TD 30 -1 19 273
1970267N09345 1970 122 NA NA NOT_NAMED 1970-09-28 00:00:00 TS 11.2000 -44.7000 30 atcf spur-merge 1061 996 O_____________ atcf AL151970 11.2000 -44.7000 TD 30 -1 19 273
1970267N09345 1970 122 NA NA NOT_NAMED 1970-09-28 03:00:00 TS 11.2422 -45.6501 spur-merge 989 945 P_____________ AL151970 11.2422 -45.6501 TD 30 -1 19 273
1970267N09345 1970 122 NA NA NOT_NAMED 1970-09-28 06:00:00 TS 11.3000 -46.6000 30 atcf spur-merge 939 893 O_____________ atcf AL151970 11.3000 -46.6000 TD 30 -1 19 274
1970267N09345 1970 122 NA NA NOT_NAMED 1970-09-28 09:00:00 TS 11.3849 -47.5725 spur-merge 886 837 P_____________ AL151970 11.3849 -47.5725 TD 30 -1 19 276
1970267N09345 1970 122 NA NA NOT_NAMED 1970-09-28 12:00:00 TS 11.5000 -48.5000 30 atcf spur-merge 837 803 O_____________ atcf AL151970 11.5000 -48.5000 TD 30 -1 17 278
1970267N09345 1970 122 NA NA NOT_NAMED 1970-09-28 15:00:00 TS 11.6346 -49.3226 spur-merge 803 786 P_____________ AL151970 11.6346 -49.3226 TD 30 -1 16 281
1970267N09345 1970 122 NA NA NOT_NAMED 1970-09-28 18:00:00 TS 11.8000 -50.1000 30 atcf spur-merge 786 773 O_____________ atcf AL151970 11.8000 -50.1000 TD 30 -1 16 283
1970267N09345 1970 122 NA NA NOT_NAMED 1970-09-28 21:00:00 TS 11.9922 -50.8926 spur-merge 773 755 P_____________ AL151970 11.9922 -50.8926 TD 30 -1 16 284
1970267N09345 1970 122 NA NA NOT_NAMED 1970-09-29 00:00:00 TS 12.2000 -51.7000 30 atcf spur-merge 757 746 O_____________ atcf AL151970 12.2000 -51.7000 TD 30 -1 17 284
1970267N09345 1970 122 NA NA NOT_NAMED 1970-09-29 03:00:00 TS 12.3999 -52.5501 spur-merge 749 746 P_____________ AL151970 12.3999 -52.5501 TD 30 -1 17 284
1970267N09345 1970 122 NA NA NOT_NAMED 1970-09-29 06:00:00 TS 12.6000 -53.4000 30 atcf spur-merge 755 751 O_____________ atcf AL151970 12.6000 -53.4000 TD 30 -1 17 284
1970267N09345 1970 122 NA NA NOT_NAMED 1970-09-29 09:00:00 TS 12.8226 -54.2673 spur-merge 743 702 P_____________ AL151970 12.8226 -54.2673 TD 30 -1 16 284
1970267N09345 1970 122 NA NA NOT_NAMED 1970-09-29 12:00:00 TS 13.0000 -55.0000 30 atcf spur-merge 702 666 O_____________ atcf AL151970 13.0000 -55.0000 TD 30 -1 12 282
1970267N09345 1970 122 NA NA NOT_NAMED 1970-09-29 15:00:00 TS 13.0720 -55.4527 spur-merge 656 626 P_____________ AL151970 13.0720 -55.4527 TD 30 -1 8 277
1970267N09345 1970 122 NA NA NOT_NAMED 1970-09-29 18:00:00 TS 13.1000 -55.8000 30 atcf spur-merge 626 587 O_____________ atcf AL151970 13.1000 -55.8000 TD 30 -1 8 276
1970267N09345 1970 122 NA NA NOT_NAMED 1970-09-29 21:00:00 TS 13.1500 -56.2425 spur-merge 587 545 P_____________ AL151970 13.1500 -56.2425 TD 30 -1 9 277
1970267N09345 1970 122 NA NA NOT_NAMED 1970-09-30 00:00:00 TS 13.2000 -56.7000 30 atcf spur-merge 545 508 O_____________ atcf AL151970 13.2000 -56.7000 TD 30 -1 9 276
1970267N09345 1970 122 NA NA NOT_NAMED 1970-09-30 03:00:00 TS 13.2424 -57.1501 spur-merge 499 470 P_____________ AL151970 13.2424 -57.1501 TD 30 -1 9 277
1970267N09345 1970 122 NA NA NOT_NAMED 1970-09-30 06:00:00 TS 13.3000 -57.6000 30 atcf spur-merge 470 444 O_____________ atcf AL151970 13.3000 -57.6000 TD 30 -1 9 280
1970267N09345 1970 122 NA NA NOT_NAMED 1970-09-30 09:00:00 TS 13.4000 -58.0724 spur-merge 437 415 P_____________ AL151970 13.4000 -58.0724 TD 30 -1 9 283
1970267N09345 1970 122 NA NA NOT_NAMED 1970-09-30 12:00:00 TS 13.5000 -58.5000 30 atcf spur-merge 415 394 O_____________ atcf AL151970 13.5000 -58.5000 TD 30 -1 7 282
1970267N09345 1970 122 NA NA NOT_NAMED 1970-09-30 15:00:00 TS 13.5574 -58.8226 spur-merge 403 384 P_____________ AL151970 13.5574 -58.8226 TD 30 -1 6 280
1970267N09345 1970 122 NA NA NOT_NAMED 1970-09-30 18:00:00 TS 13.6000 -59.1000 30 atcf spur-merge 384 368 O_____________ atcf AL151970 13.6000 -59.1000 TD 30 -1 6 279
1970267N09345 1970 122 NA CS NOT_NAMED 1970-09-30 21:00:00 TS 13.6500 -59.4075 spur-merge 368 364 P_____________ AL151970 13.6500 -59.4075 TD 30 -1 6 280
1970267N09345 1970 122 NA CS NOT_NAMED 1970-10-01 00:00:00 TS 13.7000 -59.7000 30 atcf spur-merge 364 356 O_____________ atcf AL151970 13.7000 -59.7000 TD 30 -1 5 280
1970267N09345 1970 122 NA CS NOT_NAMED 1970-10-01 03:00:00 TS 13.7424 -59.9351 spur-merge 356 353 P_____________ AL151970 13.7424 -59.9351 TD 30 -1 5 282
1970267N09345 1970 122 NA CS NOT_NAMED 1970-10-01 06:00:00 TS 13.8000 -60.2000 30 atcf spur-merge 357 353 O_____________ atcf AL151970 13.8000 -60.2000 TD 30 -1 7 285
1970267N09345 1970 122 NA CS NOT_NAMED 1970-10-01 09:00:00 TS 13.9076 -60.5924 spur-merge 360 359 P_____________ AL151970 13.9076 -60.5924 TD 30 -1 8 284
1970267N09345 1970 122 NA CS NOT_NAMED 1970-10-01 12:00:00 TS 14.0000 -61.0000 30 atcf spur-merge 369 369 O_____________ atcf AL151970 14.0000 -61.0000 TD 30 -1 7 279
1970267N09345 1970 122 NA CS NOT_NAMED 1970-10-01 15:00:00 TS 14.0149 -61.3151 spur-merge 369 369 P_____________ AL151970 14.0149 -61.3151 TD 30 -1 6 270
1970267N09345 1970 122 NA CS NOT_NAMED 1970-10-01 18:00:00 TS 14.0000 -61.6000 30 atcf spur-merge 369 369 O_____________ atcf AL151970 14.0000 -61.6000 TD 30 -1 6 268
1970267N09345 1970 122 NA CS NOT_NAMED 1970-10-01 21:00:00 TS 14.0000 -61.9000 spur-merge 370 369 P_____________ AL151970 14.0000 -61.9000 TD 30 -1 6 270
1970267N09345 1970 122 NA CS NOT_NAMED 1970-10-02 00:00:00 TS 14.0000 -62.2000 30 atcf spur-merge 369 369 O_____________ atcf AL151970 14.0000 -62.2000 TD 30 -1 6 270
1970267N09345 1970 122 NA CS NOT_NAMED 1970-10-02 03:00:00 TS 13.9999 -62.4925 spur-merge 369 369 P_____________ AL151970 13.9999 -62.4925 TD 30 -1 6 270
1970267N09345 1970 122 NA CS NOT_NAMED 1970-10-02 06:00:00 TS 14.0000 -62.8000 30 atcf spur-merge 369 369 O_____________ atcf AL151970 14.0000 -62.8000 TD 30 -1 6 270
1970267N09345 1970 122 NA CS NOT_NAMED 1970-10-02 09:00:00 TS 14.0000 -63.1425 spur-merge 369 369 P_____________ AL151970 14.0000 -63.1425 TD 30 -1 7 270
1970267N09345 1970 122 NA CS NOT_NAMED 1970-10-02 12:00:00 TS 14.0000 -63.5000 30 atcf spur-merge 372 372 O_____________ atcf AL151970 14.0000 -63.5000 TD 30 -1 7 270
1970267N09345 1970 122 NA CS NOT_NAMED 1970-10-02 15:00:00 TS 13.9999 -63.8425 spur-merge 377 377 P_____________ AL151970 13.9999 -63.8425 TD 30 -1 7 270
1970267N09345 1970 122 NA CS NOT_NAMED 1970-10-02 18:00:00 TS 14.0000 -64.2000 30 atcf spur-merge 380 380 O_____________ atcf AL151970 14.0000 -64.2000 TD 30 -1 7 270
1970267N09345 1970 122 NA CS NOT_NAMED 1970-10-02 21:00:00 TS 14.0000 -64.5925 spur-merge 383 383 P_____________ AL151970 14.0000 -64.5925 TD 30 -1 8 270
1970267N09345 1970 122 NA CS NOT_NAMED 1970-10-03 00:00:00 TS 14.0000 -65.0000 30 atcf spur-merge 390 386 O_____________ atcf AL151970 14.0000 -65.0000 TD 30 -1 8 270
1970267N09345 1970 122 NA CS NOT_NAMED 1970-10-03 03:00:00 TS 14.0000 -65.4075 spur-merge 386 381 P_____________ AL151970 14.0000 -65.4075 TD 30 -1 8 270
1970267N09345 1970 122 NA CS NOT_NAMED 1970-10-03 06:00:00 TS 14.0000 -65.8000 30 atcf spur-merge 381 380 O_____________ atcf AL151970 14.0000 -65.8000 TD 30 -1 7 269
1970267N09345 1970 122 NA CS NOT_NAMED 1970-10-03 09:00:00 TS 13.9924 -66.1650 spur-merge 380 375 P_____________ AL151970 13.9924 -66.1650 TD 30 -1 7 270
1970267N09345 1970 122 NA CS NOT_NAMED 1970-10-03 12:00:00 TS 14.0000 -66.5000 30 atcf spur-merge 375 358 O_____________ atcf AL151970 14.0000 -66.5000 TD 30 -1 6 275
1970267N09345 1970 122 NA CS NOT_NAMED 1970-10-03 15:00:00 TS 14.0424 -66.8075 spur-merge 358 353 P_____________ AL151970 14.0424 -66.8075 TD 30 -1 6 280
1970267N09345 1970 122 NA CS NOT_NAMED 1970-10-03 18:00:00 TS 14.1000 -67.1000 30 atcf spur-merge 353 338 O_____________ atcf AL151970 14.1000 -67.1000 TD 30 -1 6 280
1970267N09345 1970 122 NA CS NOT_NAMED 1970-10-03 21:00:00 TS 14.1500 -67.4075 spur-merge 348 334 P_____________ AL151970 14.1500 -67.4075 TD 30 -1 6 280
1970267N09345 1970 122 NA CS NOT_NAMED 1970-10-04 00:00:00 TS 14.2000 -67.7000 30 atcf spur-merge 334 319 O_____________ atcf AL151970 14.2000 -67.7000 TD 30 -1 5 280
1970267N09345 1970 122 NA CS NOT_NAMED 1970-10-04 03:00:00 TS 14.2424 -67.9351 spur-merge 319 307 P_____________ AL151970 14.2424 -67.9351 TD 30 -1 5 282
1970267N09345 1970 122 NA CS NOT_NAMED 1970-10-04 06:00:00 TS 14.3000 -68.2000 30 atcf spur-merge 307 293 O_____________ atcf AL151970 14.3000 -68.2000 TD 30 -1 7 283
1970267N09345 1970 122 NA CS NOT_NAMED 1970-10-04 09:00:00 TS 14.4002 -68.6374 spur-merge 293 283 P_____________ AL151970 14.4002 -68.6374 TD 30 -1 8 284
1970267N09345 1970 122 NA CS NOT_NAMED 1970-10-04 12:00:00 TS 14.5000 -69.0000 30 atcf spur-merge 285 282 O_____________ atcf AL151970 14.5000 -69.0000 TD 30 -1 4 291
1970267N09345 1970 122 NA CS NOT_NAMED 1970-10-04 15:00:00 TS 14.5574 -69.0601 spur-merge 293 293 P_____________ AL151970 14.5624 -69.0876 TD 30 -1 1 0
1970267N09345 1970 122 NA CS NOT_NAMED 1970-10-04 18:00:00 TS 14.6000 -69.0000 30 atcf spur-merge 296 296 O_____________ atcf AL151970 14.6000 -69.0000 TD 30 -1 1 28
1970267N09345 1970 122 NA CS NOT_NAMED 1970-10-04 21:00:00 TS 14.6500 -69.0000 spur-merge 306 ______________ AL151970 TD -5 1 27

IBTrACS Databaseについて

本データベースは、米国NOAAが公開する1842年以降の世界の熱帯低気圧のベストトラックデータアーカイブInternational Best Track Archive for Climate Stewardship (IBTrACS)を、ウェブで閲覧しやすい形式に変換したものです。

最終更新日:2022-07-04